View from above orbital plane
|
View from above satellite
|
Ground track
|
The orbit data is extracted from the following two-line orbital elements,
1 26906U 01040B 21054.07497073 0.00000000 00000-0 00000-0 0 00
2 26906 63.4559 116.7256 0470584 339.5232 20.4120 13.44074774 00
Epoch (UTC): | 23 February 2021 01:47:57 |
Eccentricity: | 0.0470584 |
inclination: | 63.4559° |
perigee height: | 742 km |
apogee height: | 1446 km |
right ascension of ascending node: | 116.7256° |
argument of perigee: | 339.5232° |
revolutions per day: | 13.44074774 |
mean anomaly at epoch: | 20.4120° |
orbit number at epoch: | 0 |
The dashed part of the orbit path shows where the satellite is in the earth's shadow,
|
|